User: anonymous   Login
Location: Dittelspoint
(48.7198°N, 10.7214°E)
Time: 12:24:04
(UTC+00:00)
Language:

Abrixas rocket - Orbit

View from above orbital plane
View from above orbital plane
View from above satellite
View from above satellite

Ground track
Ground track

The orbit data is extracted from the following two-line orbital elements,

1 25723U 99022C   20188.56355180 +.00012921 +00000-0 +89564-4 0  9994
2 25723 048.4100 259.2464 0003991 062.4612 297.6747 15.74752235180678
Epoch (UTC): 06 July 2020 13:31:30
Eccentricity: 0.0003991
inclination: 48.4100°
perigee height: 342 km
apogee height: 348 km
right ascension of ascending node: 259.2464°
argument of perigee: 62.4612°
revolutions per day: 15.74752235
mean anomaly at epoch: 297.6747°
orbit number at epoch: 18067

The dashed part of the orbit path shows where the satellite is in the earth's shadow,  

DLR